Weather History for Chamberlain, SD

Change the Weather History Date:

Sunday, April 6, 2014

  Actual Average Record
Temperature  
Mean Temperature 46 °F -  
Max Temperature 64 °F 50 °F 72 °F (2013)
Min Temperature 28 °F 29 °F 17 °F (2007)
Degree Days  
Heating Degree Days 20    
Moisture  
Dew Point 32 °F    
Average Humidity 63    
Maximum Humidity 89    
Minimum Humidity 27    
Precipitation  
Precipitation 0.00 in - - ()
Sea Level Pressure  
Sea Level Pressure 29.86 in    
Wind  
Wind Speed 6 mph (NW)    
Max Wind Speed 16 mph    
Max Gust Speed -    
Averages and records for this station are not official NWS values.
T = Trace of Precipitation, MM = Missing Value Source: NWS Daily Summary

Daily Weather History Graph

Daily Weather History Graph

Search for Another Location

Airport:

Trip Planner

Search our weather history database for the weather conditions in past years. The results will help you decide how hot, cold, wet, or windy it might be!

Date:

Astronomy

Apr. 06, 2014 Rise Set
Actual Time 7:09 AM CDT 8:10 PM CDT
Civil Twilight 6:40 AM CDT 8:39 PM CDT
Nautical Twilight 6:05 AM CDT 9:14 PM CDT
Astronomical Twilight 5:29 AM CDT 9:51 PM CDT
Moon 12:06 PM CDT (4/6) 2:13 AM CDT (4/6)
Length of Visible Light 13h 59m
Length of Day
13h 00m
Waxing Crescent, 44% of the Moon is Illuminated
Apr 6
Waxing Crescent
Apr 7
First Quarter
Apr 15
Full
Apr 22
Last Quarter
Apr 29
New

Hourly Weather History & Observations

Time (CDT) Temp. Windchill Dew Point Humidity Pressure Visibility Wind Dir Wind Speed Gust Speed Precip Events Conditions
12:52 AM 39.9 °F 35.1 °F 32.0 °F 73% 29.87 in - North 6.9 mph - N/A   Unknown
1:52 AM 39.9 °F 33.9 °F 33.1 °F 77% 29.86 in - North 9.2 mph - N/A   Unknown
2:52 AM 34.0 °F 31.0 °F 28.9 °F 82% 29.87 in - WNW 3.5 mph - N/A   Unknown
3:52 AM 32.0 °F 25.6 °F 28.0 °F 85% 29.86 in - NNW 6.9 mph - N/A   Unknown
4:52 AM 34.0 °F 31.0 °F 28.9 °F 82% 29.85 in - North 3.5 mph - N/A   Unknown
5:52 AM 28.9 °F 22.8 °F 26.1 °F 89% 29.87 in - SW 5.8 mph - N/A   Unknown
6:52 AM 32.0 °F 27.5 °F 28.9 °F 88% 29.88 in - West 4.6 mph - N/A   Unknown
7:52 AM 33.1 °F 27.7 °F 28.9 °F 85% 29.90 in - WNW 5.8 mph - N/A   Unknown
8:52 AM 39.0 °F 34.8 °F 33.1 °F 79% 29.90 in - West 5.8 mph - N/A   Unknown
9:52 AM 44.1 °F 40.8 °F 35.1 °F 71% 29.90 in - NW 5.8 mph - N/A   Unknown
10:52 AM 51.1 °F - 37.0 °F 59% 29.90 in - NW 9.2 mph - N/A   Unknown
11:52 AM 55.9 °F - 35.1 °F 45% 29.89 in - Calm Calm - N/A   Unknown
12:52 PM 59.0 °F - 33.1 °F 38% 29.86 in - WNW 6.9 mph - N/A   Unknown
1:52 PM 60.1 °F - 33.1 °F 36% 29.85 in - NNW 6.9 mph - N/A   Unknown
2:52 PM 60.1 °F - 30.9 °F 33% 29.85 in - NNE 4.6 mph - N/A   Unknown
3:52 PM 62.1 °F - 30.0 °F 30% 29.81 in - South 3.5 mph - N/A   Unknown
4:52 PM 63.0 °F - 28.9 °F 28% 29.80 in - Variable 4.6 mph - N/A   Unknown
5:52 PM 63.0 °F - 28.0 °F 27% 29.80 in - Calm Calm - N/A   Unknown
6:52 PM 55.9 °F - 36.0 °F 47% 29.83 in - NNE 16.1 mph - N/A   Unknown
7:52 PM 52.0 °F - 37.9 °F 59% 29.85 in - NNW 11.5 mph - N/A   Unknown
8:52 PM 46.9 °F - 37.0 °F 68% 29.85 in - SW 5.8 mph - N/A   Unknown
9:52 PM 44.1 °F 39.5 °F 36.0 °F 73% 29.86 in - West 8.1 mph - N/A   Unknown
10:52 PM 41.0 °F 39.0 °F 35.1 °F 79% 29.86 in - SW 3.5 mph - N/A   Unknown
11:52 PM 41.0 °F 36.4 °F 35.1 °F 79% 29.86 in - West 6.9 mph - N/A   Unknown